Location: Wien
(48.2082°N, 16.3738°E)
Time: 03:42:22
(UTC+02:00)

deb Explorer IX - Visible Passes

Search period start: 16 September 2024 00:00
Search period end: 26 September 2024 00:00
Orbit: 505 x 848 km, 38.7° (Epoch: 15 September)

Date Brightness Start Highest point End Pass type
(mag) Time Alt. Az. Time Alt. Az. Time Alt. Az.
16 Sep ? 19:32:35 10° S 19:36:10 17° SSE 19:39:46 10° ESE visible
16 Sep ? 21:14:00 10° SW 21:18:46 30° S 21:18:46 30° S visible
17 Sep ? 20:06:14 10° SW 20:10:54 25° SSE 20:14:01 16° ESE visible
17 Sep ? 21:48:48 10° WSW 21:52:16 27° SSW 21:52:16 27° SSW visible
18 Sep ? 20:40:37 10° SW 20:45:44 31° S 20:47:22 27° SE visible
18 Sep ? 22:23:48 10° WSW 22:25:36 18° WSW 22:25:36 18° WSW visible
19 Sep ? 19:32:40 10° SW 19:37:26 27° SSE 19:42:19 10° ESE visible
19 Sep ? 21:15:21 10° WSW 21:20:32 33° S 21:20:37 33° S visible
20 Sep ? 20:07:02 10° SW 20:12:08 32° S 20:15:32 18° SE visible
20 Sep ? 21:50:18 10° WSW 21:53:44 25° SW 21:53:44 25° SW visible
21 Sep ? 20:41:43 10° WSW 20:46:49 32° S 20:48:35 27° SSE visible
21 Sep ? 22:25:32 10° WSW 22:26:47 14° WSW 22:26:47 14° WSW visible
22 Sep ? 19:33:17 10° WSW 19:38:18 32° S 19:43:22 10° ESE visible
22 Sep ? 21:16:35 10° WSW 21:21:22 26° SSW 21:21:34 26° SSW visible
23 Sep ? 20:07:53 10° WSW 20:12:50 30° S 20:16:19 17° SE visible
23 Sep ? 21:51:52 10° WSW 21:54:30 17° SW 21:54:30 17° SW visible
24 Sep ? 20:42:43 10° WSW 20:47:14 24° SSW 20:49:13 20° S visible
25 Sep ? 19:33:51 10° WSW 19:38:37 29° S 19:43:32 10° SE visible
25 Sep ? 21:18:05 10° WSW 21:21:27 16° SSW 21:22:06 16° SSW visible
